Regional Weather Roundup
Issued by NWS

Home | Current Version | Previous Version | Graphics & Text | Print | Product List | Glossary On
Versions: 1 2 3 4 5 6 7 8 9 10 11 12 13 14 15 16 17 18 19 20 21 22 23 24 25 26 27 28 29 30 31 32 33 34 35 36 37 38 39 40 41 42 43 44 45 46 47 48 49 50
000
ASUS43 KLSX 261707
RWRMO

WEATHER SUMMARY FOR MISSOURI
NATIONAL WEATHER SERVICE SPRINGFIELD MO
1200 PM CDT SAT JUL 26 2014

NOTE: "FAIR" INDICATES FEW OR NO CLOUDS BELOW 12,000 FEET WITH NO
       SIGNIFICANT WEATHER AND/OR OBSTRUCTIONS TO VISIBILITY.
       CURRENT SKY AND/OR WEATHER CONDITIONS ARE NOT AVAILABLE FOR
       CHILLICOTHE AND FARMINGTON.

MOZ001>031-035>038-043-044-053-054-261800-
...NORTHERN AND WESTERN MISSOURI...

CITY           SKY/WX    TMP DP  RH WIND       PRES   REMARKS
KANSAS CTY INT CLOUDY    85  72  65 SW13      29.84R HX  91
KANSAS C DTWN  LGT RAIN  83  72  69 SW8G21    29.83S
LEE`S SUMMIT   LGT RAIN  79  70  74 SW14      29.86S
ST JOSEPH      LGT RAIN  80  74  81 SW8       29.81S
CHILLICOTHE      N/A     86  73  65 S9G18     29.84R HX  93
KIRKSVILLE     PTSUNNY   86  75  69 SW9       29.84S HX  95

$$
MOZ066>068-077>081-088>096-101>105-261800-
...SOUTHWEST MISSOURI...

CITY           SKY/WX    TMP DP  RH WIND       PRES   REMARKS
SPRINGFIELD    SUNNY     92  70  48 SW14      29.96F HX  97
JOPLIN         SUNNY     93  69  45 SW23G29   29.94F HX  98

$$
MOZ032>034-039>042-045>050-055>058-069>072-261800-
...CENTRAL MISSOURI...

CITY           SKY/WX    TMP DP  RH WIND       PRES   REMARKS
COLUMBIA       MOSUNNY   93  72  50 SW16      29.86F HX 101
JEFFERSON CITY MOSUNNY   91  71  51 SW15G22   29.85F HX  97
ROLLA          SUNNY     93  69  45 W18G24    29.89F HX  98
SEDALIA        MOSUNNY   89  71  55 SW18G24   29.87F HX  95
WHITEMAN AFB   PTSUNNY   85  62  44 SW15      29.86F
OSAGE BEACH    MOSUNNY   91  70  49 SW16      29.88F HX  97

$$
MOZ051-052-059>065-261800-
...EAST CENTRAL MISSOURI...

CITY           SKY/WX    TMP DP  RH WIND       PRES   REMARKS
ST LOUIS INTL  PTSUNNY   92  73  53 SW15      29.87S HX 100
SPIRIT OF STL  MOSUNNY   92  71  50 SW13G21   29.84F HX  98
ST CHARLES     MOSUNNY   89  74  60 SW9       29.84F HX  98

$$
MOZ072>076-082>087-097>100-106>115-261800-
...SOUTH CENTRAL AND SOUTHEAST MISSOURI...

CITY           SKY/WX    TMP DP  RH WIND       PRES   REMARKS
CAPE GIRARDEAU SUNNY     85  76  74 S8        29.94F HX  94
FARMINGTON     SUNNY     91  73  55 SW7G18    29.95S HX 100
POPLAR BLUFF   SUNNY     86  74  67 S12       29.95F HX  94
WEST PLAINS    SUNNY     88  71  57 SW14G23   29.99F HX  94

$$


USA.gov is the U.S. government's official web portal to all federal, state and local government web resources and services.